Regional Weather Roundup
Issued by NWS

Home | Current Version | Previous Version | Graphics & Text | Print | Product List | Glossary On
Versions: 1 2 3 4 5 6 7 8 9 10 11 12 13 14 15 16 17 18 19 20 21 22 23 24 25 26 27 28 29 30 31 32 33 34 35 36 37 38 39 40 41 42 43 44 45 46 47 48
000
ASUS45 KCYS 041710
RWRWY

WYOMING REGIONAL WEATHER ROUNDUP
NATIONAL WEATHER SERVICE CHEYENNE WY
1000 AM MST WED MAR 04 2015

NOTE:  "FAIR" INDICATES FEW OR NO CLOUDS BELOW 12,000 FEET
WITH NO SIGNIFICANT WEATHER AND/OR OBSTRUCTIONS TO VISIBILITY.

WYZ001-041800-
YELLOWSTONE NATIONAL PARK

CITY           SKY/WX    TMP DP  RH WIND       PRES   REMARKS
LK YELLOWSTONE   N/A     -6 -12  75 SE3       30.05R
W YELLOWSTONE  NOT AVBL

$$
WYZ002>013-054>058-071-098>099-041800-
NORTHERN WYOMING

CITY           SKY/WX    TMP DP  RH WIND       PRES   REMARKS
JACKSON        SUNNY      0  -6  78 VRB7      30.12R WCI -13
CODY           FAIR      10   1  67 E6        30.12S WCI   1
GREYBULL       FAIR      10   1  67 E5        30.24R WCI   2
WORLAND        FAIR       9   0  67 SW3       30.21R
SHERIDAN       PTSUNNY   10   2  69 W5        30.20R WCI   2
BUFFALO        FAIR       9   1  70 CALM      30.12R
GILLETTE       FAIR       9  -2  61 NW17      30.15S WCI  -9
HULETT         PTSUNNY   10  -4  52 NW8G18    30.16R WCI  -1
NEWCASTLE      FAIR      12  -6  44 NW24G30   30.17R WCI  -8

$$
WYZ014>020-022>026-101>103-041800-
CENTRAL WYOMING

CITY           SKY/WX    TMP DP  RH WIND       PRES   REMARKS
BIG PINEY      FAIR      14   0  53 NE8       30.06R WCI   3
PINEDALE       FAIR       9  -4  56 NW6       30.06S WCI  -1
DUBOIS         FAIR      10  -4  52 NW14      29.99S WCI  -5
LANDER         FAIR      -2  -7  79 SE3       30.13R
RIVERTON       FAIR      -1  -3  91 CALM      30.14R
CASPER         FAIR       6  -1  73 SW16      30.11S WCI -12
DOUGLAS        FAIR       2  -3  80 N5        30.15S WCI  -8

$$
WYZ021-027>030-104>119-041800-
SOUTHERN WYOMING

CITY           SKY/WX    TMP DP  RH WIND       PRES   REMARKS
EVANSTON       FAIR      18  13  80 SW10      30.07R WCI   6
FORT BRIDGER   FAIR      20  14  75 W15       30.09R WCI   7
ROCK SPRINGS   FAIR       7   1  76 CALM      30.07R
DIXON          LGT SNOW  11   4  74 CALM      30.10R
RAWLINS        FAIR      -1  -4  87 W5        30.06R WCI -11
SARATOGA       FAIR       1  -4  78 NW5       30.04R WCI  -8
LARAMIE        FAIR       6  -2  69 N6        29.99R WCI  -4
CHEYENNE       FAIR      12  -2  53 SW9       30.06S WCI   0
TORRINGTON     FAIR      15   2  56 NW7       30.18R WCI   5
PINE BLUFFS    PTSUNNY   18   1  49 W6        30.13S WCI   9

$$


USA.gov is the U.S. government's official web portal to all federal, state and local government web resources and services.